{"data":{"norad_id":58247,"intl_designator":"2023-171T","name":"STARLINK-30850","alt_names":[],"object_type":"PAYLOAD","status":"ACTIVE","operator":null,"country":"US","launch_date":"2023-11-08","launch_site_code":"AFETR","launch_vehicle":null,"mission":null,"orbit_class":"UNKNOWN","rcs_meters":null,"size_class":null,"mass_kg":null,"dimensions":null,"purposes":["comms"],"wikipedia_slug":null,"has_3d_model":false,"image_url":null,"decayed_at":null,"tle_current":{"epoch":"2026-09-20T11:11:57.879168Z","epoch_age_seconds":146527,"freshness":"FRESH","line1":"1 58247U 23171T   26263.46664212  .00000189  00000+0  16400-4 0  9992","line2":"2 58247  43.0044 265.1920 0001591 275.7771  84.2900 15.27575501159523","mean_motion":15.27575501,"eccentricity":0.0001591,"inclination_deg":43.0044,"raan_deg":265.192,"arg_perigee_deg":275.7771,"mean_anomaly_deg":84.29,"bstar":1.64e-5,"rev_number":15952,"period_min":94.267026347132,"perigee_km":481.970950846,"apogee_km":484.15418454845,"semimajor_km":6861.1995676972,"source":"CELESTRAK","updated_at":"2026-09-21T09:00:33.839401Z"}}}